Location: Unspecified
(41.5000°N, 0.0000°E)
Time: 20:07:00
(UTC+00:00)

Courier 1B Rocket - Pass Details

Date: 25 June 2019
Orbit: 920 x 1202 km, 28.3° (Epoch: 21 August)

Event Time Altitude Azimuth Distance (km) Brightness Sun altitude
Rises 04:27:08 0° 243° (WSW) 3,889 - -0.9°
Exits shadow 04:27:26 - 242° (WSW) 3,792 7.4 -0.8°
Reaches altitude 10° 04:30:25 10° 231° (SW) 2,882 6.8 -0.3°
Maximum altitude 04:36:01 26° 178° (S) 1,881 6.3 0.6°
Drops below altitude 10° 04:41:19 10° 124° (SE) 2,720 7.7 1.4°
Sets 04:44:20 0° 112° (ESE) 3,630 8.6 1.9°
